Regional Weather Roundup
Issued by NWS State College, PA

Home | Current Version | Previous Version | Text Only | Print | Product List | Glossary On
Versions: 1 2 3 4 5 6 7 8 9 10 11 12 13 14 15 16 17 18 19 20 21 22 23 24 25 26 27 28 29 30 31 32 33 34 35 36 37 38 39 40 41 42 43 44 45 46 47 48 49 50
000
ASUS41 KCTP 280410
RWRCTP

REGIONAL WEATHER ROUNDUP
NATIONAL WEATHER SERVICE STATE COLLEGE PA
1200 AM EDT FRI AUG 28 2015

Note: "fair" indicates few or no clouds below 12,000 feet with no
significant weather and/or obstructions to visibility.

* = STATION THAT DOES NOT REPORT PRECIPITATION /E.G. RAIN...SNOW...ETC/
    THUNDER OR FOG.

PAZ002>004-007>009-013>016-020>023-029>032-280500-
WESTERN PENNSYLVANIA

CITY           SKY/WX    TMP DP  RH WIND       PRES   REMARKS
ERIE           CLEAR     57  52  83 S3        30.19S
MEADVILLE      CLEAR     56  51  84 CALM      30.21S
FRANKLIN*      CLEAR     54  50  87 CALM      30.23S
NEW CASTLE     FAIR      57  56  97 CALM      30.21F
BEAVER COUNTY  NOT AVBL
BUTLER*        CLEAR     55  54  94 NE3       30.22S
PITTSBURGH INT PTCLDY    63  57  81 CALM      30.19S
PITTSBURGH     CLEAR     63  52  67 E3        30.19S
INDIANA*       MOCLDY    57  55  94 CALM      30.23S
LATROBE        NOT AVBL
WASHINGTON CO* CLEAR     54  52  94 CALM      30.20S VSB 1
$$

PAZ004>006-010>012-017>019-024>028-033>037-041-042-045-046-049>053-280500-
CENTRAL PENNSYLVANIA

CITY           SKY/WX    TMP DP  RH WIND       PRES   REMARKS
BRADFORD       FOG       47  45  93 CALM      30.21S VSB 1
DUBOIS         CLEAR     56  52  86 CALM      30.21R
CLEARFIELD     MOCLDY    58  54  86 N5        30.21R
JOHNSTOWN      CLEAR     59  52  77 SW3       30.22R
ALTOONA        CLEAR     56  52  86 SW3       30.20S
STATE COLLEGE  PTCLDY    62  57  83 NW5       30.18S
WILLIAMSPORT   MOCLDY    63  58  83 NW3       30.15S
SELINSGROVE    CLOUDY    61  59  93 CALM      30.16S
FT INDIANTOWN  CLOUDY    58  56  94 CALM      30.16S
CAPITAL CITY   CLEAR     62  57  83 SW3       30.16S
HARRISBURG     PTCLDY    63  57  81 CALM      30.15S
YORK           CLEAR     57  55  93 CALM      30.16S
$$

PAZ038>040-043-044-047-048-054-055-060>062-067>071-280500-
EASTERN PENNSYLVANIA

CITY           SKY/WX    TMP DP  RH WIND       PRES   REMARKS
SCRANTON       CLEAR     59  54  83 SE3       30.16S
MOUNT POCONO   CLEAR     52  50  93 N5        30.18S
ALLENTOWN      CLEAR     61  54  77 CALM      30.15R
QUAKERTOWN*    CLEAR     55  54  94 CALM      30.17R
READING        CLEAR     60  55  83 CALM      30.15R
LANCASTER      CLEAR     63  56  78 W3        30.16R
COATESVILLE    CLEAR     59  55  88 W3        30.17S
POTTSTOWN      CLEAR     59  56  89 CALM      30.17R
BLUE BELL      CLEAR     57  55  94 CALM      30.15R
DOYLESTOWN     CLEAR     57  56  96 CALM      30.15R
WILLOW GROVE   NOT AVBL
NORTH PHILA    CLEAR     65  54  67 N3        30.16R
PHILADELPHIA   PTCLDY    70  54  56 N3        30.15R
$$


USA.gov is the U.S. government's official web portal to all federal, state and local government web resources and services.